Regional Weather Roundup
Issued by NWS

Home | Current Version | Previous Version | Graphics & Text | Print | Product List | Glossary On
Versions: 1 2 3 4 5 6 7 8 9 10 11 12 13 14 15 16 17 18 19 20 21 22 23 24 25 26 27 28 29 30 31 32 33 34 35 36 37 38 39 40 41 42 43 44 45 46 47 48 49 50
000
ASUS43 KDTX 011710
RWRMI
MICHIGAN HOURLY REGIONAL WEATHER ROUNDUP
NATIONAL WEATHER SERVICE DETROIT/PONTIAC MI
100 PM EDT WED OCT 01 2014

NOTE: "FAIR" INDICATES FEW OR NO CLOUDS BELOW 12,000 FEET WITH NO
SIGNIFICANT WEATHER AND/OR OBSTRUCTION TO VISIBILITY.

MIZ047>049-052>055-059>063-066>070-074>076-081>083-011800-
SOUTHEAST LOWER MICHIGAN

CITY           SKY/WX    TMP DP  RH WIND       PRES   REMARKS
ADRIAN         CLOUDY    64  48  56 MISG      30.08S
ALMA           CLOUDY    56  54  92 SE6       30.08F
ANN ARBOR      MOSUNNY   65  47  52 VRB7      30.06F
BAD AXE        CLOUDY    62  61  97 CALM      30.08S FOG
DETROIT CITY   MOSUNNY   63  50  62 S5        30.07F
DETROIT        PTSUNNY   60  51  72 CALM      30.07S
FLINT          CLOUDY    65  52  62 S8        30.07S
GROSSE ILE     PTSUNNY   64  54  68 SE5       30.06S
HILLSDALE      CLOUDY    61  49  64 S7        30.07S
HOWELL         PTSUNNY   61  50  67 S8        30.07S

CITY           SKY/WX    TMP DP  RH WIND       PRES   REMARKS
JACKSON        CLOUDY    60  48  64 CALM      30.07S
LAMBERTVILLE   CLOUDY    63  50  63 CALM      30.07S
LANSING        CLOUDY    56  50  80 SE7       30.09R
LAPEER         NOT AVBL
MASON          CLOUDY    58  51  76 CALM      30.08S
MONROE         CLOUDY    64  52  63 S5        30.05S
MT. CLEMENS    PTSUNNY   65  56  72 E9        30.04F
PONTIAC        MOSUNNY   63  50  62 MISG      30.06F
PORT HOPE        N/A     61  59  93 E7        30.06F
PORT HURON     CLOUDY    63  59  88 SW5       30.07S FOG
TRI CITIES     CLOUDY    59  55  87 S3        30.09S FOG
YPSILANTI      CLOUDY    68  51  54 S7        30.07S
$$
MIZ043>046-050>051-056>058-064>065-071>073-077>080-011800-
SOUTHWEST LOWER MICHIGAN

CITY           SKY/WX    TMP DP  RH WIND       PRES   REMARKS
BATTLE CREEK   CLOUDY    59  48  67 VRB5      30.07F
BENTON HARBOR  CLOUDY    59  48  67 E10       30.04F
BIG RAPIDS     CLOUDY    56  56 100 S8        30.06F FOG
COLDWATER      CLOUDY    60  49  68 SE5       30.07F
GRAND RAPIDS   CLOUDY    59  52  77 SE8       30.06F
KALAMAZOO      CLOUDY    58  48  69 S10       30.07F
MARSHALL       PTSUNNY   59  48  67 S3        30.07S
MUSKEGON       CLOUDY    57  48  72 S8        30.06F
$$
MIZ016>042-011800-
NORTHERN LOWER MICHIGAN

CITY           SKY/WX    TMP DP  RH WIND       PRES   REMARKS
ALPENA         CLOUDY    56  56 100 E5        30.09F FOG
BEAVER ISLAND  CLOUDY    58  54  87 SE7       30.07S
BELLAIRE       CLOUDY    60  53  76 E3        30.07F
CADILLAC       CLOUDY    60  55  84 SE9       30.05F
CHARLEVOIX     CLOUDY    58  55  88 S6        30.10S
FRANKFORT      CLOUDY    57  51  81 S5        30.06F
GAYLORD        CLOUDY    53  52  96 SE8       30.09S FOG
GRAYLING       CLOUDY    58  56  91 E7        30.08F
HARBOR SPRINGS CLOUDY    56  53  86 E5        30.08F
HOUGHTON LAKE  CLOUDY    59  54  83 E6        30.08F
OSCODA         CLOUDY    59  58  98 E5        30.07S FOG
PELLSTON       CLOUDY    56  53  90 S5        30.09S
TRAVERSE CITY  CLOUDY    61  53  75 VRB5      30.05F
$$
MIZ007>008-015-011800-
EASTERN UPPER MICHIGAN

CITY           SKY/WX    TMP DP  RH WIND       PRES   REMARKS
MACKINAC ISLAN CLOUDY    55  54  94 SE5       30.08F
NEWBERRY       CLOUDY    55  52  92 S9G16     30.06F
S. S. MARIE    CLOUDY    53  51  93 SE6       30.09S FOG
$$
MIZ004>006-011>014-085-011800-
CENTRAL UPPER MICHIGAN

CITY           SKY/WX    TMP DP  RH WIND       PRES   REMARKS
MANISTIQUE     CLOUDY    56  53  89 S6        30.05F
SAWYER-GWINN   CLOUDY    52  50  93 S13       30.00F FOG
$$
MIZ001>003-009>011-084-011800-
WESTERN UPPER MICHIGAN

CITY           SKY/WX    TMP DP  RH WIND       PRES   REMARKS
IRON MOUNTAIN  CLOUDY    52  50  93 S8        29.98F FOG
HOUGHTON       CLOUDY    56  46  69 S16G23    29.92F
$$

ABBREVIATIONS USED IN REMARKS
   TC - TEMPERATURE IN CELSIUS
  WCI - WIND CHILL INDEX
   HX - HEAT INDEX
  VSB - VISIBILITY




USA.gov is the U.S. government's official web portal to all federal, state and local government web resources and services.